[[{"header":{"parameterUnit":"m.s-1","parameterCategory":2,"la1":30.2992,"la2":30.254,"lo1":-89.0895,"lo2":-89.0443,"dy":0.0025,"dx":0.0025,"nx":19,"ny":19,"refTime":"2026-04-01T03:00:00:Z","depth":"0","parameterNumber":2,"parameterNumberName":"U-component_of_CURRENTS"},"data":[0,0,0,0.0016,0.0017,0.0036,0.0036,0.006,0.006,0,0,0,0,0,0,0,0,0,0,0,0.001,0.001,0.0016,0.0017,0.0036,0.0036,0.006,0.006,0,0,0,0,0,0,0,0,0,0,0,0.001,0.001,0.001,0.0017,0.0036,0.0036,0.006,0.0047,0,0,0,0,0,0,0,0,0,0,0.0029,0.0023,0.001,0.001,0.0017,0.0036,0.0036,0.0046,0.0048,0.0049,0,0.0049,0,0.0053,0.0061,0.0061,0,0,0,0.0022,0.0021,0.0024,0.001,0.0017,0.0036,0.0029,0.0047,0.0049,0.0051,0.0049,0.005,0.0053,0.0062,0.0062,-0.0001,-0.0002,0,0,0.0021,0.0018,0.0023,0.0024,0.0017,0.0028,0.0029,0.0048,0.005,0.0049,0.0051,0.0053,0.0062,0.0062,-0.0,-0.0001,0,0,0,0.0014,0.0017,0.0019,0.0023,0.0026,0.0029,0.003,0.0049,0.0049,0.0051,0.0054,0.0062,0.0062,0.0001,-0.0001,-0.0075,0,0,0,0.0014,0.0012,0.0018,0.0017,0.0025,0.0038,0.003,0.0047,0.005,0.0054,0.0062,0.0062,0.0001,-0.0,-0.0071,-0.0017,0,0,0,0.001,0.0012,0.0012,0.0017,0.0022,0.0038,0.0039,0.0048,0.0051,0.0061,0.0062,0.0002,0.0,-0.0068,-0.0014,0.008,0,0,0,0.0009,-0.0019,0.0012,-0.001,0.0022,0.0004,0.0039,0.0046,0.0053,0.0062,0.0001,-0.0001,-0.0066,-0.0012,0.008,0.036,0.0383,0,0,-0.0034,-0.0024,-0.0037,-0.001,-0.0033,0.0002,-0.0053,-0.0015,0.0019,-0.0001,-0.0003,-0.0072,-0.0014,0.008,0.0248,0.0276,0,0,0,-0.0056,-0.006,-0.0061,-0.0062,-0.0062,-0.0073,-0.0064,-0.0067,-0.0076,0.0013,-0.0091,-0.0049,0.0012,0.0178,0.0198,0.0287,-0.0009,-0.0009,-0.0009,-0.009,-0.0091,-0.0105,-0.0113,-0.0124,-0.0135,-0.0136,-0.0141,-0.0141,-0.0165,-0.0129,-0.0122,0.0046,0.0067,0.0149,-0.0194,-0.0194,-0.0194,-0.0195,-0.0111,-0.0093,-0.0115,-0.0127,-0.0147,-0.0179,-0.0213,-0.0216,-0.0193,-0.0223,-0.0161,0.0069,0.0086,0.0166,-0.02,-0.0199,-0.0198,-0.0198,-0.0197,-0.0072,-0.0067,-0.0082,-0.0089,-0.0109,-0.0153,-0.0094,-0.016,-0.0176,-0.0151,0.0123,0.0128,0.0229,-0.011,-0.011,-0.0109,-0.0109,-0.0108,-0.0108,-0.0,-0.0025,0.0002,-0.0023,-0.0003,0.0012,-0.0001,0.0055,0.0136,0.0145,0.0148,0.0259,-0.0092,-0.006,-0.0099,-0.0101,-0.0102,-0.0103,-0.0103,0.0082,0.0085,0.0127,0.015,0.019,0.0286,0.0268,0.0469,0.051,0.0629,0.0626,0.0326,0.0423,0.041,0.0455,0.0553,0.0553,0.0553,0.0553,0.0167,0.016,0.0246,0.0307,0.038,0.0414,0.069,0.084,0.0963,0.1028,0.0935,0.0929,0.0898,0.1018,0.0991,0.1046,0.1292,0.1292,0.1293,0.024,0.0253,0.0334,0.0372,0.0459,0.0584,0.0854,0.1101,0.1295,0.1316,0.0995,0.0964,0.0933,0.0879,0.1045,0.1,0.1082,0,0]},{"header":{"parameterUnit":"m.s-1","parameterCategory":2,"la1":30.2992,"la2":30.254,"lo1":-89.0895,"lo2":-89.0443,"dy":0.0025,"dx":0.0025,"nx":19,"ny":19,"refTime":"2026-04-01T03:00:00:Z","depth":"0","parameterNumber":3,"parameterNumberName":"V-component_of_CURRENTS"},"data":[0,0,0,-0.0052,-0.0052,-0.0036,-0.0036,-0.0003,-0.0002,0,0,0,0,0,0,0,0,0,0,0,-0.0057,-0.0057,-0.0052,-0.0052,-0.0036,-0.0036,-0.0003,-0.0002,0,0,0,0,0,0,0,0,0,0,0,-0.0057,-0.0057,-0.0057,-0.0052,-0.0036,-0.0036,-0.0003,-0.0016,0,0,0,0,0,0,0,0,0,0,-0.0032,-0.0042,-0.0057,-0.0057,-0.0052,-0.0036,-0.0036,-0.0017,-0.0015,-0.0009,0,-0.0011,0,-0.001,-0.0001,-0.0,0,0,0,-0.0044,-0.0044,-0.004,-0.0057,-0.0052,-0.0036,-0.0041,-0.0016,-0.0014,-0.0006,-0.0011,-0.001,-0.0009,-0.0,-0.0,0.003,0.003,0,0,-0.0045,-0.0051,-0.0041,-0.0039,-0.0054,-0.0042,-0.0041,-0.0015,-0.0015,-0.0011,-0.0009,-0.0009,-0.0,0.0,0.003,0.003,0,0,0,-0.0053,-0.0052,-0.0049,-0.004,-0.0041,-0.0042,-0.004,-0.0016,-0.0016,-0.0008,-0.0008,-0.0,0.0,0.003,0.003,0.0001,0,0,0,-0.0053,-0.0057,-0.0049,-0.0052,-0.0042,-0.0031,-0.0042,-0.0017,-0.0014,-0.0008,0.0,0.0001,0.003,0.003,0.0002,-0.0012,0,0,0,-0.0056,-0.0057,-0.0058,-0.0053,-0.005,-0.0031,-0.0029,-0.0017,-0.0015,-0.0,0.0001,0.003,0.003,0.0002,-0.0011,0.0059,0,0,0,-0.0059,-0.0062,-0.0058,-0.0057,-0.005,-0.0032,-0.0029,-0.0018,-0.0007,0.0,0.003,0.003,0.0002,-0.0011,0.0059,0.026,0.0279,0,0,-0.0063,-0.0062,-0.0061,-0.0057,-0.005,-0.0034,-0.0027,-0.0017,0.0002,0.0023,0.0024,0.0002,-0.0011,0.0059,0.0277,0.0296,0,0,0,-0.0062,-0.0066,-0.0061,-0.0058,-0.0041,-0.004,-0.002,-0.0014,0.0,0.0008,0.0016,0.0009,0.0055,0.0175,0.019,0.0138,0.0032,0.0031,0.0031,-0.0067,-0.0065,-0.0068,-0.0065,-0.0055,-0.0043,-0.004,-0.0027,-0.0002,0.0001,-0.0004,0.0042,0.0168,0.0182,0.0125,0.001,0.001,0.001,0.001,-0.0074,-0.008,-0.0084,-0.0087,-0.0084,-0.0077,-0.0065,-0.0056,-0.0008,-0.0014,0.0033,0.015,0.0198,0.013,0.0008,0.0008,0.0009,0.0009,0.0009,-0.0083,-0.0089,-0.0093,-0.01,-0.0113,-0.0102,-0.0076,-0.0076,-0.0026,-0.0005,0.0206,0.021,0.0147,0.0055,0.0055,0.0055,0.0055,0.0056,0.0056,-0.0084,-0.0095,-0.0092,-0.011,-0.011,-0.0106,-0.0068,0.0012,0.0157,0.0204,0.0207,0.0172,0.0057,0.0051,0.0059,0.0059,0.0058,0.0058,0.0058,-0.0083,-0.0085,-0.0081,-0.0078,-0.0067,0.001,0.0034,0.0299,0.0381,0.0516,0.0409,0.0342,0.0386,0.0377,0.0381,0.0474,0.0474,0.0474,0.0474,-0.0072,-0.0077,-0.0047,-0.0029,0.0001,0.0068,0.037,0.0589,0.0677,0.0663,0.0542,0.0545,0.0531,0.058,0.0566,0.0571,0.071,0.071,0.0709,-0.0049,-0.0046,-0.0013,0.0001,0.004,0.0195,0.0535,0.0857,0.0872,0.0701,0.0421,0.0411,0.0387,0.0369,0.0424,0.0409,0.041,0,0]}],[{"header":{"parameterUnit":"m.s-1","parameterCategory":2,"la1":30.2992,"la2":30.254,"lo1":-89.0895,"lo2":-89.0443,"dy":0.0025,"dx":0.0025,"nx":19,"ny":19,"refTime":"2026-04-01T03:00:00:Z","depth":"2","parameterNumber":2,"parameterNumberName":"U-component_of_CURRENTS"},"data":[0,0,0,0.0172,0.0172,0.02,0.0201,0.0229,0.0229,0,0,0,0,0,0,0,0,0,0,0,0.0165,0.0164,0.0172,0.0172,0.02,0.0201,0.0229,0.0229,0,0,0,0,0,0,0,0,0,0,0,0.0165,0.0165,0.0164,0.0172,0.02,0.0201,0.0229,0.0214,0,0,0,0,0,0,0,0,0,0,0.0189,0.0178,0.0165,0.0164,0.0172,0.02,0.0201,0.0213,0.0215,0.0208,0,0.0202,0,0.0206,0.0229,0.0229,0,0,0,0.019,0.0177,0.0179,0.0164,0.0172,0.02,0.0193,0.0214,0.0216,0.0209,0.0202,0.0203,0.0206,0.0229,0.0229,0.0174,0.0174,0,0,0.0188,0.0178,0.0178,0.0179,0.0165,0.0191,0.0193,0.0215,0.0214,0.0202,0.0204,0.0207,0.0229,0.0229,0.0175,0.0174,0,0,0,0.0171,0.0177,0.018,0.0178,0.0178,0.0192,0.0194,0.0213,0.0212,0.0204,0.0207,0.0229,0.0229,0.0176,0.0175,0.0069,0,0,0,0.0171,0.0166,0.0179,0.0174,0.0178,0.0197,0.0191,0.0211,0.0213,0.0207,0.0229,0.0229,0.0176,0.0175,0.0073,0.0142,0,0,0,0.0166,0.0166,0.0163,0.0173,0.0177,0.0197,0.0198,0.0212,0.0214,0.0229,0.0229,0.0177,0.0175,0.0077,0.0145,0.0233,0,0,0,0.0164,0.0132,0.0163,0.0144,0.0176,0.0165,0.0198,0.0205,0.0215,0.0229,0.0176,0.0175,0.0078,0.0147,0.0233,0.0506,0.0528,0,0,0.0117,0.0126,0.0119,0.0147,0.0131,0.0164,0.0116,0.0149,0.0189,0.0173,0.0172,0.0072,0.0145,0.0233,0.0423,0.0449,0,0,0,0.0102,0.0096,0.01,0.0104,0.0108,0.01,0.0107,0.0096,0.0086,0.0184,0.0072,0.0125,0.0183,0.0346,0.0365,0.0168,0.0168,0.0168,0.0168,0.0054,0.0066,0.0055,0.006,0.0052,0.004,0.0042,0.003,0.002,-0.0007,0.0032,0.0036,0.02,0.022,-0.0032,-0.0033,-0.0033,-0.0034,-0.0034,0.0029,0.0051,0.0038,0.003,0.0016,-0.0017,-0.0045,-0.0055,-0.0029,-0.0065,-0.0006,0.022,0.0236,-0.0042,-0.0041,-0.0039,-0.0039,-0.0038,-0.0037,0.006,0.0065,0.0052,0.0049,0.0024,-0.0011,0.0043,-0.002,-0.0025,0.0004,0.0268,0.0274,0.0071,0.0024,0.0025,0.0026,0.0026,0.0027,0.0027,0.0119,0.0096,0.0118,0.0093,0.0109,0.0118,0.0113,0.0175,0.0262,0.0286,0.0288,0.0061,0.0059,0.008,0.0036,0.0035,0.0033,0.0033,0.0032,0.0196,0.0194,0.0231,0.0248,0.028,0.0375,0.0358,0.057,0.062,0.0746,0.0472,0.0458,0.0571,0.0559,0.0595,0.0688,0.0688,0.0688,0.0688,0.0275,0.0266,0.0344,0.0396,0.0461,0.0495,0.0779,0.0912,0.0937,0.0902,0.089,0.0857,0.0829,0.0953,0.0931,0.0973,0.1164,0.1165,0.1165,0.0348,0.0357,0.0432,0.0461,0.0536,0.0666,0.0948,0.1098,0.1104,0.1166,0.0796,0.0755,0.0676,0.0643,0.0809,0.0783,0.0841,0,0]},{"header":{"parameterUnit":"m.s-1","parameterCategory":2,"la1":30.2992,"la2":30.254,"lo1":-89.0895,"lo2":-89.0443,"dy":0.0025,"dx":0.0025,"nx":19,"ny":19,"refTime":"2026-04-01T03:00:00:Z","depth":"2","parameterNumber":3,"parameterNumberName":"V-component_of_CURRENTS"},"data":[0,0,0,-0.0164,-0.0164,-0.0151,-0.0151,-0.0112,-0.0112,0,0,0,0,0,0,0,0,0,0,0,-0.0165,-0.0165,-0.0164,-0.0164,-0.0151,-0.0151,-0.0112,-0.0112,0,0,0,0,0,0,0,0,0,0,0,-0.0165,-0.0165,-0.0165,-0.0164,-0.0151,-0.0151,-0.0113,-0.0126,0,0,0,0,0,0,0,0,0,0,-0.0141,-0.015,-0.0165,-0.0165,-0.0164,-0.0151,-0.0151,-0.0127,-0.0126,-0.0114,0,-0.0113,0,-0.0115,-0.0109,-0.0109,0,0,0,-0.0159,-0.0151,-0.0146,-0.0165,-0.0164,-0.0151,-0.0155,-0.0126,-0.0124,-0.0111,-0.0112,-0.0111,-0.0114,-0.0109,-0.0109,-0.0066,-0.0066,0,0,-0.0159,-0.0162,-0.0148,-0.0145,-0.0161,-0.0156,-0.0155,-0.0125,-0.0124,-0.0112,-0.011,-0.0114,-0.0109,-0.0109,-0.0066,-0.0066,0,0,0,-0.0165,-0.0163,-0.0159,-0.0147,-0.0148,-0.0156,-0.0155,-0.0125,-0.0124,-0.011,-0.0113,-0.0109,-0.0108,-0.0066,-0.0066,-0.008,0,0,0,-0.0165,-0.0167,-0.016,-0.0161,-0.0149,-0.0141,-0.0155,-0.0126,-0.0123,-0.0113,-0.0109,-0.0108,-0.0067,-0.0066,-0.008,-0.0078,0,0,0,-0.0165,-0.0167,-0.0165,-0.0162,-0.0159,-0.0141,-0.0138,-0.0125,-0.0125,-0.0109,-0.0108,-0.0067,-0.0066,-0.008,-0.0079,-0.0022,0,0,0,-0.0169,-0.0164,-0.0165,-0.0161,-0.0159,-0.0137,-0.0138,-0.0123,-0.0109,-0.0108,-0.0067,-0.0066,-0.008,-0.0079,-0.0023,0.0128,0.0145,0,0,-0.0164,-0.0164,-0.0161,-0.0162,-0.0149,-0.0139,-0.0124,-0.0111,-0.0098,-0.0074,-0.0073,-0.008,-0.0079,-0.0022,0.0153,0.0169,0,0,0,-0.016,-0.0162,-0.0156,-0.0152,-0.0134,-0.0128,-0.011,-0.0101,-0.0084,-0.009,-0.0067,-0.0066,-0.0029,0.006,0.0073,-0.0064,-0.0064,-0.0064,-0.0064,-0.0152,-0.0153,-0.0152,-0.0149,-0.0134,-0.0117,-0.0104,-0.0088,-0.0075,-0.0069,-0.0068,-0.0023,0.0071,0.0083,-0.0062,-0.0062,-0.0062,-0.0062,-0.0062,-0.0151,-0.0159,-0.0158,-0.0157,-0.0147,-0.0132,-0.0105,-0.0097,-0.0047,-0.0062,-0.0026,0.0051,0.0097,-0.0063,-0.0062,-0.0062,-0.0062,-0.0062,-0.0062,-0.0159,-0.0165,-0.0166,-0.0167,-0.0166,-0.0148,-0.0111,-0.0102,-0.0051,-0.0027,0.0119,0.0121,-0.0013,0.0007,0.0008,0.0008,0.0008,0.0008,0.0009,-0.0163,-0.0169,-0.0167,-0.0176,-0.0173,-0.0161,-0.0109,-0.003,0.0094,0.0133,0.0135,0.0002,-0.0001,-0.0007,0.0012,0.0012,0.0011,0.0011,0.0011,-0.0169,-0.017,-0.0166,-0.0162,-0.0148,-0.0078,-0.0041,0.0195,0.0272,0.0388,0.0246,0.0239,0.0271,0.0262,0.0263,0.0352,0.0352,0.0352,0.0352,-0.0165,-0.0169,-0.0144,-0.0128,-0.0102,-0.0035,0.0219,0.0351,0.0429,0.0366,0.0363,0.0351,0.034,0.0373,0.0362,0.0363,0.0477,0.0477,0.0476,-0.0151,-0.0147,-0.0121,-0.0107,-0.0072,0.0066,0.0344,0.0505,0.0461,0.0466,0.0233,0.039,0.0369,0.0352,0.0399,0.0382,0.0383,0,0]}],[{"header":{"parameterUnit":"m.s-1","parameterCategory":2,"la1":30.2992,"la2":30.254,"lo1":-89.0895,"lo2":-89.0443,"dy":0.0025,"dx":0.0025,"nx":19,"ny":19,"refTime":"2026-04-01T03:00:00:Z","depth":"4","parameterNumber":2,"parameterNumberName":"U-component_of_CURRENTS"},"data":[0,0,0,0.0651,0.0655,0.0742,0.0741,0.0911,0.0913,0,0,0,0,0,0,0,0,0,0,0,0.0573,0.0574,0.0651,0.0655,0.0742,0.0741,0.091,0.0913,0,0,0,0,0,0,0,0,0,0,0,0.0572,0.0573,0.0575,0.0656,0.0742,0.0741,0.0909,0.0815,0,0,0,0,0,0,0,0,0,0,0.0718,0.0705,0.0573,0.0575,0.0657,0.0742,0.0741,0.081,0.0821,0.0906,0,0.0926,0,0.0976,0.0931,0.0932,0,0,0,0.0596,0.0695,0.0694,0.0575,0.0658,0.0742,0.0686,0.0815,0.0829,0.0923,0.0929,0.0937,0.0979,0.0933,0.0934,0.1162,0.1162,0,0,0.0591,0.0615,0.0684,0.0703,0.0695,0.0684,0.0689,0.0822,0.086,0.093,0.0942,0.0982,0.0935,0.0937,0.1162,0.1162,0,0,0,0.0617,0.0612,0.0605,0.0694,0.0736,0.0688,0.0694,0.0852,0.0843,0.0944,0.0984,0.0936,0.0939,0.1161,0.1162,0.1072,0,0,0,0.0611,0.0632,0.0603,0.0622,0.0733,0.0805,0.0722,0.083,0.085,0.0983,0.0936,0.0942,0.116,0.1161,0.1073,0.0917,0,0,0,0.0567,0.063,0.0634,0.0622,0.0689,0.0802,0.0799,0.0834,0.0879,0.0932,0.0943,0.116,0.1161,0.1075,0.0924,0.0921,0,0,0,0.059,0.0599,0.0635,0.0664,0.0688,0.0733,0.0798,0.084,0.0874,0.0938,0.1161,0.1162,0.1075,0.0928,0.0925,0.093,0,0,0,0.0596,0.0601,0.0607,0.0642,0.0677,0.0715,0.0788,0.0855,0.093,0.111,0.1115,0.1073,0.0925,0.0922,0.0998,0,0,0,0,0.0604,0.061,0.063,0.0667,0.0707,0.0743,0.084,0.0893,0.0987,0.0975,0.1121,0.1029,0.1031,0.1049,0.1167,0.1167,0.1167,0.1167,0.1167,0.0611,0.0609,0.0621,0.064,0.0672,0.0779,0.0794,0.0893,0.1006,0.1031,0.0997,0.0969,0.0993,0.1108,0.1108,0.1107,0.1107,0.1107,0.1107,0.0582,0.0567,0.0579,0.0569,0.0607,0.0649,0.0765,0.0823,0.0887,0.0966,0.0979,0.1002,0.1099,0.1101,0.1102,0.1103,0.1103,0.1104,0.1104,0.0549,0.0539,0.0512,0.049,0.0472,0.0542,0.057,0.0639,0.0728,0.0716,0.0808,0.0893,0.0853,0.0774,0.0773,0.0772,0.0772,0.0771,0.0771,0.0507,0.049,0.0463,0.0426,0.0395,0.0372,0.0439,0.0497,0.0584,0.0623,0.0677,0.0856,0.0867,0.0836,0.076,0.0762,0.0764,0.0765,0.0765,0.0472,0.0455,0.0441,0.0409,0.0365,0.0335,0.0382,0.0464,0.0516,0.0549,0.0632,0.0642,0.0657,0.0672,0.0634,0.0495,0.0495,0.0495,0,0.0444,0.0442,0.0431,0.0412,0.0375,0.0332,0.0396,0.0461,0.0497,0.0444,0.0535,0.0622,0.0632,0.0651,0.0664,0.0621,0,0,0,0.0426,0.0437,0.0431,0.0422,0.0367,0.0365,0.04,0.0421,0.0446,0.0546,0.0486,0.0489,0.0795,0.073,0.0775,0.0788,0.0739,0,0]},{"header":{"parameterUnit":"m.s-1","parameterCategory":2,"la1":30.2992,"la2":30.254,"lo1":-89.0895,"lo2":-89.0443,"dy":0.0025,"dx":0.0025,"nx":19,"ny":19,"refTime":"2026-04-01T03:00:00:Z","depth":"4","parameterNumber":3,"parameterNumberName":"V-component_of_CURRENTS"},"data":[0,0,0,-0.0216,-0.0219,-0.0314,-0.0314,-0.0293,-0.0293,0,0,0,0,0,0,0,0,0,0,0,-0.0138,-0.0138,-0.0216,-0.0219,-0.0314,-0.0314,-0.0293,-0.0293,0,0,0,0,0,0,0,0,0,0,0,-0.0138,-0.0138,-0.0139,-0.022,-0.0314,-0.0314,-0.0293,-0.0249,0,0,0,0,0,0,0,0,0,0,-0.017,-0.0176,-0.0138,-0.0139,-0.0221,-0.0314,-0.0314,-0.0248,-0.0251,-0.022,0,-0.023,0,-0.0294,-0.0292,-0.0292,0,0,0,-0.0185,-0.0173,-0.0169,-0.0139,-0.0222,-0.0314,-0.0262,-0.0251,-0.0255,-0.0224,-0.0231,-0.0233,-0.0293,-0.0291,-0.0291,-0.0182,-0.0181,0,0,-0.018,-0.0183,-0.0166,-0.0171,-0.0238,-0.0259,-0.0265,-0.0254,-0.0269,-0.0231,-0.0234,-0.0293,-0.0291,-0.0291,-0.0183,-0.0182,0,0,0,-0.0188,-0.018,-0.0178,-0.0169,-0.0217,-0.0263,-0.027,-0.0269,-0.026,-0.0234,-0.0293,-0.0291,-0.0291,-0.0184,-0.0183,-0.0106,0,0,0,-0.0183,-0.0187,-0.0175,-0.0183,-0.0218,-0.028,-0.0285,-0.0259,-0.0263,-0.0293,-0.0291,-0.0291,-0.0185,-0.0183,-0.0111,-0.0107,0,0,0,-0.0135,-0.0185,-0.0185,-0.0182,-0.0242,-0.0281,-0.0273,-0.0262,-0.03,-0.0292,-0.0291,-0.0186,-0.0184,-0.0115,-0.0112,-0.009,0,0,0,-0.0148,-0.0143,-0.0185,-0.0186,-0.0241,-0.0235,-0.0274,-0.0276,-0.0263,-0.0291,-0.0185,-0.0183,-0.0116,-0.0116,-0.0093,-0.0166,0,0,0,-0.0138,-0.0143,-0.0133,-0.0173,-0.0183,-0.022,-0.019,-0.0194,-0.021,-0.0176,-0.0175,-0.0109,-0.0113,-0.009,-0.0021,0,0,0,0,-0.0126,-0.013,-0.0132,-0.0158,-0.0159,-0.0146,-0.0174,-0.0147,-0.0102,-0.0204,-0.0081,-0.0086,-0.0074,-0.0124,-0.0171,-0.0171,-0.0172,-0.0172,-0.0172,-0.0135,-0.0124,-0.0125,-0.0115,-0.0101,-0.0088,-0.0035,0.0001,-0.0037,0.0014,-0.0,0.0096,0.0052,0.004,0.004,0.0041,0.0041,0.0041,0.0041,-0.0127,-0.0124,-0.0113,-0.0109,-0.0068,-0.0033,0.0077,0.0095,0.0157,0.0116,0.0124,-0.0011,0.005,0.0048,0.0047,0.0046,0.0045,0.0045,0.0044,-0.0135,-0.0134,-0.0131,-0.0118,-0.0068,-0.0006,0.0089,0.0166,0.0203,0.0236,0.0135,0.0137,0.0102,0.0215,0.0215,0.0215,0.0215,0.0215,0.0215,-0.0146,-0.0143,-0.015,-0.0129,-0.0118,-0.0038,0.0087,0.0147,0.0205,0.0198,0.022,0.0153,0.0147,0.0112,0.0218,0.0217,0.0217,0.0217,0.0217,-0.0136,-0.0154,-0.0162,-0.0162,-0.0121,-0.0052,0.0046,0.0141,0.0191,0.0208,0.019,0.019,0.0142,0.0136,0.0097,0.0203,0.0202,0.0202,0,-0.0133,-0.0143,-0.0157,-0.0157,-0.0108,-0.004,0.0033,0.0109,0.0169,0.0155,0.0206,0.0185,0.0185,0.0128,0.0122,0.0075,0,0,0,-0.0112,-0.0129,-0.0124,-0.0146,-0.01,0.0006,0.0075,0.0089,0.0137,0.0167,0.0187,0.0191,0.0199,0.0226,0.0151,0.0145,0.0082,0,0]}]]